{"data":{"norad_id":50494,"epoch":"2026-05-25T01:33:29.204640Z","epoch_age_seconds":63448,"freshness":"FRESH","line1":"1 50494U 21132AB  26145.06492135  .00000010  00000+0 -71564-5 0  9998","line2":"2 50494  87.9171 340.0571 0001852  96.9411 263.1932 13.18664070218534","mean_motion":13.1866407,"eccentricity":0.0001852,"inclination_deg":87.9171,"raan_deg":340.0571,"arg_perigee_deg":96.9411,"mean_anomaly_deg":263.1932,"bstar":-7.1564e-6,"rev_number":21853,"period_min":109.20142838198,"perigee_km":1188.4254446189,"apogee_km":1191.2286184962,"semimajor_km":7567.9640315576,"source":"CELESTRAK","updated_at":"2026-05-25T13:38:22.533586Z"}}